TimeEST,TemperatureF,Dew PointF,Humidity,Sea Level PressureIn,VisibilityMPH,Wind Direction,Wind SpeedMPH,Gust SpeedMPH,PrecipitationIn,Events,Conditions,WindDirDegrees,DateUTC
12:10 AM,24.8,17.6,74,30.04,8.0,NW,4.6,-,0.00,Snow,Light Snow,310,2013-03-03 05:10:00
12:56 AM,24.1,18.1,78,30.09,8.0,NW,5.8,-,0.00,Snow,Light Snow,320,2013-03-03 05:56:00
1:56 AM,24.1,17.1,75,30.09,7.0,NW,8.1,-,0.00,Snow,Light Snow,320,2013-03-03 06:56:00
2:36 AM,23.0,17.6,80,30.04,6.0,NW,6.9,-,0.00,Snow,Light Snow,310,2013-03-03 07:36:00
2:56 AM,23.0,17.1,78,30.07,7.0,WNW,4.6,-,0.00,Snow,Light Snow,300,2013-03-03 07:56:00
3:28 AM,23.0,17.6,80,30.02,6.0,WNW,5.8,-,0.00,Snow,Light Snow,300,2013-03-03 08:28:00
3:49 AM,23.0,17.6,80,30.02,6.0,NW,5.8,-,0.00,Snow,Light Snow,310,2013-03-03 08:49:00
3:56 AM,23.0,18.1,82,30.06,6.0,NW,6.9,-,0.00,Snow,Light Snow,320,2013-03-03 08:56:00
4:56 AM,22.1,14.0,71,30.07,7.0,NW,8.1,-,0.00,Snow,Light Snow,320,2013-03-03 09:56:00
5:21 AM,21.2,15.8,80,30.03,6.0,NNW,8.1,-,0.00,Snow,Light Snow,330,2013-03-03 10:21:00
5:56 AM,22.1,15.1,74,30.07,6.0,NNW,10.4,-,0.00,Snow,Light Snow,330,2013-03-03 10:56:00
6:56 AM,22.1,14.0,71,30.08,7.0,NNW,6.9,-,0.00,,Overcast,330,2013-03-03 11:56:00
7:56 AM,22.1,14.0,71,30.09,6.0,NNW,8.1,-,0.00,Snow,Light Snow,330,2013-03-03 12:56:00
8:56 AM,23.0,14.0,68,30.09,7.0,NW,6.9,-,0.00,,Overcast,310,2013-03-03 13:56:00
9:56 AM,24.1,14.0,65,30.09,6.0,WNW,10.4,-,0.00,Snow,Light Snow,300,2013-03-03 14:56:00
10:06 AM,24.8,14.0,64,30.04,4.0,WNW,11.5,17.3,0.00,Snow,Light Snow,300,2013-03-03 15:06:00
10:56 AM,24.1,17.1,75,30.09,4.0,West,10.4,-,0.00,Snow,Light Snow,280,2013-03-03 15:56:00
11:12 AM,24.8,17.6,74,30.05,4.0,WNW,9.2,-,0.00,Snow,Light Snow,290,2013-03-03 16:12:00
11:56 AM,25.2,16.2,69,30.09,5.0,NW,11.5,-,0.00,Snow,Light Snow,320,2013-03-03 16:56:00
12:56 PM,26.1,15.1,63,30.07,7.0,NW,15.0,19.6,0.00,,Overcast,310,2013-03-03 17:56:00
1:56 PM,28.0,13.1,54,30.05,7.0,NNW,13.8,-,N/A,,Overcast,330,2013-03-03 18:56:00
2:56 PM,27.1,13.1,56,30.06,7.0,NW,12.7,-,N/A,,Mostly Cloudy,320,2013-03-03 19:56:00
3:56 PM,28.0,14.0,56,30.06,8.0,WNW,16.1,-,N/A,,Overcast,300,2013-03-03 20:56:00
4:56 PM,27.1,13.1,56,30.07,7.0,WNW,13.8,-,N/A,,Overcast,290,2013-03-03 21:56:00
5:56 PM,27.1,13.1,56,30.08,7.0,NW,9.2,-,N/A,,Overcast,310,2013-03-03 22:56:00
6:56 PM,26.1,13.1,58,30.09,8.0,WNW,8.1,-,N/A,,Overcast,300,2013-03-03 23:56:00
7:56 PM,26.1,13.1,58,30.10,8.0,WNW,9.2,-,N/A,,Overcast,300,2013-03-04 00:56:00
8:56 PM,26.1,12.0,55,30.11,8.0,WNW,8.1,-,N/A,,Overcast,300,2013-03-04 01:56:00
9:56 PM,25.2,14.0,63,30.11,8.0,WNW,5.8,-,N/A,,Overcast,290,2013-03-04 02:56:00
10:56 PM,23.0,13.1,66,30.11,8.0,WNW,4.6,-,N/A,,Partly Cloudy,290,2013-03-04 03:56:00
11:56 PM,23.0,12.0,63,30.11,8.0,West,4.6,-,N/A,,Partly Cloudy,270,2013-03-04 04:56:00